Hourly Weather Viedma

Today, 2 October, Friday

Time Temperature Precipitation Wind Pressure Humidity
00:00 +5°C° 0 mm 4 mps 763 mmHg 52%
01:00 +5°C° 0 mm 4 mps 764 mmHg 54%
02:00 +4°C° 0 mm 4 mps 764 mmHg 56%
03:00 +4°C° 0 mm 4 mps 765 mmHg 58%
04:00 +4°C° 0 mm 4 mps 765 mmHg 60%
05:00 +3°C° 0 mm 4 mps 766 mmHg 62%
06:00 +3°C° 0 mm 5 mps 767 mmHg 57%
07:00 +4°C° 0 mm 6 mps 768 mmHg 53%
08:00 +5°C° 0 mm 7 mps 768 mmHg 48%
09:00 +6°C° 0 mm 7 mps 769 mmHg 45%
10:00 +6°C° 0 mm 7 mps 770 mmHg 42%
11:00 +7°C° 0 mm 8 mps 771 mmHg 38%
12:00 +8°C° 0 mm 7 mps 771 mmHg 38%
13:00 +8°C° 0 mm 7 mps 771 mmHg 37%
14:00 +8°C° 0 mm 7 mps 771 mmHg 37%
15:00 +6°C° 0 mm 7 mps 772 mmHg 39%
16:00 +6°C° 0 mm 7 mps 772 mmHg 41%
17:00 +5°C° 0 mm 6 mps 772 mmHg 43%
18:00 +5°C° 0 mm 5 mps 773 mmHg 49%
19:00 +3°C° 0 mm 4 mps 773 mmHg 54%
20:00 +2°C° 0 mm 3 mps 774 mmHg 60%
21:00 +2°C° 0 mm 3 mps 774 mmHg 62%
22:00 +1°C° 0 mm 3 mps 774 mmHg 63%
23:00 +2°C° 0 mm 2 mps 774 mmHg 64%

Tomorrow, 3 October, Saturday

Time Temperature Precipitation Wind Pressure Humidity
00:00 +1°C° 0 mm 2 mps 774 mmHg 67%
01:00 +1°C° 0 mm 1 mps 774 mmHg 69%
02:00 +1°C° 0 mm 1 mps 775 mmHg 72%
03:00 0°C° 0 mm 1 mps 774 mmHg 73%
04:00 -1°C° 0 mm 0 mps 774 mmHg 75%
05:00 -2°C° 0 mm 0 mps 774 mmHg 76%
06:00 +1°C° 0 mm 0 mps 774 mmHg 66%
07:00 +4°C° 0 mm 1 mps 775 mmHg 55%
08:00 +7°C° 0 mm 1 mps 775 mmHg 45%
09:00 +8°C° 0 mm 1 mps 775 mmHg 40%
10:00 +10°C° 0 mm 1 mps 774 mmHg 36%
11:00 +10°C° 0 mm 2 mps 774 mmHg 31%
12:00 +12°C° 0 mm 2 mps 774 mmHg 30%
13:00 +11°C° 0 mm 3 mps 773 mmHg 30%
14:00 +12°C° 0 mm 4 mps 773 mmHg 29%
15:00 +10°C° 0 mm 5 mps 772 mmHg 33%
16:00 +9°C° 0 mm 6 mps 771 mmHg 37%
17:00 +8°C° 0 mm 7 mps 771 mmHg 41%
18:00 +6°C° 0 mm 7 mps 771 mmHg 49%
19:00 +4°C° 0 mm 6 mps 771 mmHg 57%
20:00 +2°C° 0 mm 5 mps 771 mmHg 65%
21:00 +2°C° 0 mm 5 mps 771 mmHg 66%
22:00 +3°C° 0 mm 4 mps 770 mmHg 68%
23:00 +3°C° 0 mm 4 mps 770 mmHg 70%

Day after tomorrow, 4 October, Sunday

Time Temperature Precipitation Wind Pressure Humidity
00:00 +3°C° 0 mm 4 mps 770 mmHg 75%
01:00 +1°C° 0 mm 4 mps 769 mmHg 81%
02:00 +1°C° 0 mm 4 mps 769 mmHg 87%
03:00 +1°C° 0 mm 4 mps 768 mmHg 86%
04:00 +2°C° 0 mm 3 mps 768 mmHg 86%
05:00 +2°C° 0 mm 3 mps 768 mmHg 86%
06:00 +4°C° 0 mm 4 mps 768 mmHg 77%
07:00 +5°C° 0 mm 4 mps 767 mmHg 69%
08:00 +7°C° 0 mm 5 mps 767 mmHg 60%
09:00 +9°C° 0 mm 5 mps 767 mmHg 53%
10:00 +12°C° 0 mm 5 mps 767 mmHg 46%
11:00 +14°C° 0 mm 5 mps 766 mmHg 39%
12:00 +14°C° 0 mm 4 mps 766 mmHg 40%
13:00 +13°C° 0 mm 4 mps 765 mmHg 42%
14:00 +13°C° 0 mm 3 mps 765 mmHg 44%
15:00 +12°C° 0.2 mm 4 mps 765 mmHg 53%
16:00 +9°C° 0.2 mm 5 mps 764 mmHg 61%
17:00 +8°C° 0.2 mm 5 mps 764 mmHg 69%
18:00 +7°C° 0 mm 5 mps 764 mmHg 69%
19:00 +6°C° 0 mm 4 mps 764 mmHg 69%
20:00 +5°C° 0 mm 3 mps 764 mmHg 69%
21:00 +5°C° 0 mm 3 mps 764 mmHg 73%
22:00 +5°C° 0 mm 3 mps 764 mmHg 76%
23:00 +5°C° 0 mm 2 mps 764 mmHg 80%

5 October, Monday

Time Temperature Precipitation Wind Pressure Humidity
00:00 +5°C° 0 mm 2 mps 763 mmHg 83%
01:00 +4°C° 0 mm 3 mps 763 mmHg 85%
02:00 +4°C° 0 mm 3 mps 762 mmHg 87%
03:00 +5°C° 0 mm 2 mps 762 mmHg 89%
04:00 +4°C° 0 mm 2 mps 761 mmHg 90%
05:00 +5°C° 0 mm 1 mps 761 mmHg 92%
06:00 +6°C° 0 mm 2 mps 761 mmHg 85%
07:00 +8°C° 0 mm 3 mps 761 mmHg 78%
08:00 +10°C° 0 mm 3 mps 761 mmHg 72%
09:00 +12°C° 0 mm 4 mps 760 mmHg 62%
10:00 +14°C° 0 mm 5 mps 760 mmHg 52%
11:00 +16°C° 0 mm 5 mps 759 mmHg 42%
12:00 +17°C° 0 mm 6 mps 758 mmHg 39%
13:00 +19°C° 0 mm 6 mps 758 mmHg 37%
14:00 +19°C° 0 mm 6 mps 757 mmHg 35%
15:00 +19°C° 0 mm 6 mps 757 mmHg 34%
16:00 +19°C° 0 mm 6 mps 756 mmHg 34%
17:00 +19°C° 0 mm 6 mps 755 mmHg 33%
18:00 +16°C° 0 mm 5 mps 755 mmHg 41%
19:00 +14°C° 0 mm 5 mps 755 mmHg 49%
20:00 +12°C° 0 mm 4 mps 755 mmHg 57%
21:00 +10°C° 0 mm 5 mps 755 mmHg 63%
22:00 +10°C° 0 mm 5 mps 755 mmHg 68%
23:00 +9°C° 0 mm 6 mps 755 mmHg 73%

6 October, Tuesday

Time Temperature Precipitation Wind Pressure Humidity
00:00 +9°C° 0 mm 5 mps 755 mmHg 74%
01:00 +9°C° 0 mm 5 mps 754 mmHg 75%
02:00 +8°C° 0 mm 5 mps 754 mmHg 76%
03:00 +8°C° 0 mm 5 mps 754 mmHg 77%
04:00 +8°C° 0 mm 6 mps 754 mmHg 77%
05:00 +8°C° 0 mm 6 mps 754 mmHg 78%
06:00 +9°C° 0 mm 6 mps 754 mmHg 70%
07:00 +11°C° 0 mm 7 mps 754 mmHg 62%
08:00 +14°C° 0 mm 7 mps 755 mmHg 54%
09:00 +16°C° 0 mm 6 mps 755 mmHg 46%
10:00 +19°C° 0 mm 5 mps 755 mmHg 39%
11:00 +21°C° 0 mm 4 mps 755 mmHg 32%
12:00 +21°C° 0 mm 5 mps 754 mmHg 30%
13:00 +21°C° 0 mm 5 mps 754 mmHg 27%
14:00 +21°C° 0 mm 6 mps 754 mmHg 25%
15:00 +20°C° 0 mm 6 mps 754 mmHg 29%
16:00 +17°C° 0 mm 6 mps 754 mmHg 32%
17:00 +15°C° 0 mm 6 mps 754 mmHg 36%
18:00 +13°C° 0 mm 6 mps 754 mmHg 43%
19:00 +10°C° 0 mm 5 mps 755 mmHg 50%
20:00 +8°C° 0 mm 4 mps 755 mmHg 57%
21:00 +8°C° 0 mm 4 mps 755 mmHg 64%
22:00 +8°C° 0 mm 3 mps 756 mmHg 70%
23:00 +7°C° 0 mm 2 mps 756 mmHg 76%

7 October, Wednesday

Time Temperature Precipitation Wind Pressure Humidity
00:00 +7°C° 0 mm 2 mps 756 mmHg 79%
01:00 +7°C° 0 mm 2 mps 756 mmHg 81%
02:00 +7°C° 0 mm 3 mps 756 mmHg 84%
03:00 +7°C° 0 mm 3 mps 756 mmHg 85%
04:00 +7°C° 0 mm 3 mps 756 mmHg 87%
05:00 +7°C° 0 mm 3 mps 757 mmHg 88%
06:00 +9°C° 0 mm 3 mps 757 mmHg 79%
07:00 +11°C° 0 mm 3 mps 758 mmHg 70%
08:00 +13°C° 0 mm 3 mps 758 mmHg 61%
09:00 +16°C° 0 mm 3 mps 758 mmHg 53%
10:00 +17°C° 0 mm 3 mps 758 mmHg 45%
11:00 +19°C° 0 mm 2 mps 758 mmHg 37%
12:00 +19°C° 0 mm 4 mps 758 mmHg 37%
13:00 +17°C° 0 mm 5 mps 758 mmHg 37%
14:00 +17°C° 0 mm 6 mps 758 mmHg 37%
15:00 +16°C° 0 mm 6 mps 758 mmHg 38%
16:00 +15°C° 0 mm 6 mps 758 mmHg 40%
17:00 +14°C° 0 mm 6 mps 758 mmHg 42%
18:00 +12°C° 0 mm 5 mps 759 mmHg 50%
19:00 +10°C° 0 mm 4 mps 759 mmHg 58%
20:00 +8°C° 0 mm 3 mps 760 mmHg 65%
21:00 +8°C° 0 mm 3 mps 760 mmHg 68%
22:00 +7°C° 0 mm 3 mps 760 mmHg 71%
23:00 +7°C° 0 mm 3 mps 760 mmHg 74%
Show more

We Need Your Consent

Meteoprog and our Service Providers may store and access personal data such as cookies, device identifiers or other similar technologies on your device and process such data to personalise content and ads, as well as provide social media features and to analyse the traffic.

  • Store and/or access information on your device

    Cookies, device identifiers or other information can be stored or accessed on your device for the purposes indicated above.

  • Personalised ads and content, ad and content measurement, audience insights, and products development

    Ads and content can be personalised based on a profile. More data can be added to better personalise ads and content. Ad and content performance can be measured. Insights about the audience who saw the ads and content can be derived. Such data can be used to develop or improve user’s experience, systems and software.

By clicking ‘I Agree’ you will allow the use of indicated cookies, device identifiers, web beacons or other similar technologies. Your settings can be changed in the browser on your device.

For certain purposes, legitimate interests may be relied on, rather than consent. You can read more about this in our Privacy and Cookie Policy.